SCP
0 0 0 0 0 0 -0 -0 -0 0 0 0 0 0 -0 0 0 -0 0 -0 -0 -1 -0 -0 -1 -1 -1 -0 -0 -0 -0 -0 -0 -0 -0 -0 -0 -0 -0 -0 -0 -0 -0 -0 -0 0 0 0 0
0 0 0 0 0 0 -0 -0 0 0 0 0 0 0 1 0 0 0 -0 -0 -1 -1 -0 -0 -1 -1 -1 -1 -0 -0 -0 -0 -0 -0 -0 -0 -0 -0 -0 -0 -0 -0 -0 0 -0 0 0 0 0
0 0 0 0 0 0 -0 0 -0 0 0 0 0 0 0 0 0 -0 0 -0 -0 -0 -0 -0 -1 -1 -1 -1 -0 -0 -0 -0 -0 -0 -0 -0 -0 -0 -0 0 0 0 0 0 -0 0 0 0 0
0 0 0 0 0 0 0 0 -0 0 0 0 0 0 0 -0 0 0 -0 -0 -0 -0 -0 -1 -1 -1 -1 -1 -0 -0 -0 -0 -0 -0 -0 -0 -0 -0 0 0 0 0 0 -0 -0 0 0 -0 -0
0 0 0 0 0 0 0 0 0 0 0 0 0 0 1 0 0 -0 0 0 -0 -0 0 -1 -0 -1 -1 -1 -0 -0 -0 -0 -0 -0 -0 -0 -0 -0 0 0 0 0 0 0 0 -0 -0 -0 -0
0 0 0 0 0 -0 -0 0 0 0 0 0 0 0 0 1 0 0 0 0 0 0 0 0 -0 -0 -0 -1 -0 -0 -0 -0 -0 -0 -0 -0 -0 -0 0 0 0 0 0 0 0 -0 -0 -0 -0
0 0 0 0 0 0 -0 0 0 0 0 0 0 0 1 0 0 0 0 0 0 1 1 1 0 0 0 -0 -0 -0 0 0 0 0 0 0 0 0 0 0 0 0 -0 -0 -0 -0 -0 -0 -0
0 0 0 0 0 0 0 0 0 0 0 0 0 0 1 0 0 0 0 0 1 1 1 1 1 1 1 1 0 0 0 0 0 0 0 0 0 0 0 0 0 0 -0 -0 -0 -0 -0 -0 -0
0 0 0 0 0 0 0 0 0 0 0 0 0 0 1 0 0 1 1 1 1 1 1 1 1 1 1 1 1 1 0 0 0 0 0 0 0 0 0 0 0 0 0 -0 -0 -0 -0 -0 -0
0 0 0 0 0 0 0 0 0 0 0 0 0 0 1 1 0 1 1 1 1 1 0 1 1 1 1 1 1 1 1 1 1 1 1 0 0 0 0 0 0 0 0 0 0 -0 -0 -0 -0
0 0 0 0 0 0 0 0 0 0 0 0 0 0 0 0 0 1 1 1 0 1 1 1 1 1 2 2 1 1 1 2 1 1 1 0 0 0 0 0 0 0 0 0 0 0 0 0 0
0 0 0 0 0 0 0 0 0 0 0 0 0 0 0 0 0 0 0 1 2 2 1 1 1 1 1 3 2 1 2 2 1 1 1 0 0 0 0 0 0 0 0 0 0 0 0 0 0
0 0 0 0 0 0 0 0 0 0 0 0 0 0 0 0 0 0 0 0 1 3 2 1 1 1 1 3 2 2 2 1 1 1 1 0 0 0 0 0 0 0 0 0 0 0 0 0 0
0 0 0 0 0 0 0 0 0 0 0 0 0 0 0 0 0 0 0 0 0 2 2 2 1 1 0 2 1 2 2 1 1 1 1 0 0 0 0 0 0 0 0 0 0 0 0 0 0
0 0 0 0 0 0 0 0 0 0 0 0 0 0 0 0 0 0 0 0 0 1 1 1 1 1 0 1 1 1 1 1 1 1 0 0 0 0 0 0 0 0 0 0 0 0 0 0 0
0 0 0 0 0 0 0 0 0 0 0 0 0 0 0 0 0 0 0 0 0 0 0 0 1 0 0 1 0 0 0 0 0 0 0 0 0 0 0 0 0 0 0 0 0 0 0 0 0
0 0 0 0 0 0 0 0 0 0 0 0 0 0 0 0 0 0 0 0 0 0 0 0 0 0 0 1 0 0 0 0 0 0 0 0 0 0 0 0 0 1 1 0 0 0 0 0 0
0 0 0 0 0 0 0 0 0 0 0 0 0 0 0 0 0 0 0 0 0 0 0 0 0 0 2 4 1 0 0 0 0 0 0 0 0 0 0 0 0 0 0 0 0 0 0 0 0
0 0 0 0 0 0 0 0 0 0 0 0 0 0 0 0 0 0 0 0 0 0 1 1 1 0 2 3 2 1 0 0 0 0 0 0 0 0 0 0 0 0 0 0 0 0 0 0 0
0 0 0 0 0 0 0 0 0 0 0 0 0 0 0 0 0 0 0 0 0 0 1 1 0 0 1 0 0 1 0 0 0 0 0 0 0 0 0 0 0 0 0 0 0 0 0 0 0
0 0 0 0 0 -0 0 0 0 0 0 0 0 0 0 0 0 0 0 0 0 1 1 1 0 0 1 0 0 0 0 0 0 0 0 0 0 0 0 0 0 0 0 0 0 0 0 0 0
0 0 0 0 0 0 0 0 0 0 0 0 0 0 0 0 0 0 0 0 1 1 2 1 0 0 0 1 1 1 0 0 0 0 0 0 0 0 0 0 0 0 0 0 0 0 0 0 0
0 0 0 0 0 0 0 0 0 0 0 0 0 0 0 0 1 1 2 2 3 2 2 1 1 1 1 1 1 1 0 0 0 0 0 0 0 0 0 0 0 0 0 0 0 0 1 0 0
0 0 0 0 0 0 0 0 0 0 0 0 0 0 0 0 0 0 0 0 1 1 1 0 1 1 1 0 0 0 0 0 0 0 0 0 0 0 0 0 0 0 0 0 0 0 0 0 0
-0 0 0 0 0 0 -0 0 0 0 0 0 -0 0 0 0 0 0 0 0 0 0 0 0 0 0 0 0 0 0 0 0 0 0 0 0 0 0 0 0 0 0 0 0 0 0 0 0 0
0 0 0 0 0 0 0 0 0 0 -0 -0 0 0 0 0 0 0 0 0 0 0 0 1 0 0 0 0 0 0 0 0 0 0 0 0 0 0 0 0 0 0 0 0 0 0 -0 -0 0
0 0 0 0 0 0 0 0 0 0 0 0 0 0 0 0 0 0 0 0 0 0 0 0 1 1 1 0 0 0 0 0 0 0 0 0 0 0 1 0 0 0 0 0 0 0 0 -0 -0
0 0 0 0 0 0 0 0 0 0 0 0 0 0 0 0 0 0 0 0 0 0 0 0 0 0 0 0 1 1 0 0 0 0 0 0 0 0 0 0 0 0 0 0 0 0 -0 -0 -0
0 0 0 0 0 0 0 0 0 0 0 0 0 0 0 0 0 0 0 0 0 0 0 0 0 0 0 0 0 0 0 0 0 0 0 0 0 0 0 0 0 0 0 0 -0 -0 -0 -0 0
0 0 0 0 0 0 0 0 0 0 0 0 0 0 0 0 0 0 0 0 0 0 0 0 0 0 0 0 0 0 0 0 0 0 0 0 -0 -0 0 0 0 0 0 0 0 0 0 0 0
Wind_Speed_500mb
18 14 13 6 6 8 10 15 5 15 16 19 45 23 17 12 9 7 30 52 47 61 67 67 62 59 54 49 44 42 38 34 36 42 43 43 47 50 48 43 38 35 34 32 31 31 31 31 32
10 9 7 1 8 1 12 5 17 20 25 10 43 34 11 3 19 34 56 48 39 51 63 69 65 61 56 51 46 42 39 35 36 42 44 46 50 50 46 40 35 32 31 31 30 30 30 32 34
6 10 7 7 7 13 13 10 5 29 60 38 16 34 16 21 33 43 28 47 51 52 59 70 68 63 58 53 49 44 40 36 35 41 43 47 48 46 42 36 32 29 28 28 28 28 29 32 35
8 9 5 6 23 15 20 12 17 33 62 46 6 14 15 26 38 30 37 41 46 48 57 68 69 65 61 56 53 48 44 39 37 40 43 46 46 43 39 34 30 26 24 25 25 25 26 29 33
11 5 1 8 18 13 19 29 34 23 23 45 38 15 19 33 23 33 40 40 40 49 60 66 68 65 61 58 54 51 48 44 39 39 42 44 43 41 38 33 28 24 23 23 23 23 23 24 28
7 3 3 18 10 13 13 36 26 28 48 46 9 18 13 36 37 37 37 38 31 39 62 66 67 65 60 57 54 50 47 44 39 35 37 40 41 40 37 31 26 22 21 21 20 20 21 22 24
9 7 11 9 8 13 15 22 11 27 31 31 29 10 34 53 31 35 39 37 26 39 60 66 66 63 58 54 52 49 47 44 42 38 36 37 39 39 35 31 26 22 19 19 19 18 19 20 21
13 8 7 10 9 16 16 13 31 29 31 28 24 12 27 58 45 42 43 39 28 31 54 60 63 64 61 56 51 49 49 47 44 40 34 32 34 36 36 32 27 22 19 18 19 20 20 20 20
12 5 10 12 11 13 22 13 27 29 41 25 14 50 65 63 62 57 50 43 39 41 43 53 59 61 60 56 53 51 48 49 48 45 40 36 33 33 36 34 30 26 22 20 20 21 21 22 21
14 11 19 15 10 14 28 8 31 13 27 19 33 34 56 56 66 65 59 53 48 49 47 40 50 57 58 56 54 55 55 57 56 51 46 37 33 30 32 35 34 30 26 24 24 24 25 25 22
13 15 17 14 44 56 42 13 26 3 8 7 17 18 4 40 56 62 63 55 46 42 50 50 43 49 60 61 59 57 59 60 56 51 46 41 37 32 30 33 38 36 34 31 30 29 28 24 23
10 16 35 36 59 39 24 32 10 12 23 27 29 22 16 12 14 12 19 52 63 53 56 58 53 46 54 66 67 61 62 60 57 53 48 45 42 37 34 35 39 40 37 34 32 32 29 27 26
18 10 31 45 61 70 63 41 29 25 27 30 33 40 38 28 25 23 20 14 37 69 69 69 65 60 59 68 66 62 57 54 53 53 51 49 47 44 39 38 40 40 36 33 34 33 33 32 30
12 43 53 58 58 62 36 42 25 30 27 32 38 46 52 56 45 37 33 26 19 36 66 73 66 58 45 64 62 58 53 49 49 51 53 51 48 44 43 40 37 37 36 27 18 21 26 34 31
46 20 24 29 31 22 44 33 22 35 32 33 37 49 54 61 64 60 51 43 40 18 37 62 70 63 49 54 52 54 45 37 31 39 46 46 47 46 45 45 42 36 31 31 24 25 24 26 28
10 12 34 18 16 23 27 52 22 32 39 46 55 57 61 64 64 60 53 45 59 47 33 37 53 68 53 59 50 47 43 42 34 30 33 26 33 41 47 47 42 35 36 36 37 27 28 33 28
10 21 13 7 20 16 25 46 17 50 47 50 62 63 69 76 71 69 55 45 49 51 40 40 47 59 67 61 48 41 48 47 42 38 40 37 36 40 44 52 44 49 49 55 45 43 33 41 37
9 3 11 14 10 16 21 37 13 38 44 52 65 67 73 64 73 68 59 54 42 54 44 40 54 63 77 64 61 45 54 51 48 45 47 49 49 49 50 60 62 51 53 52 55 56 51 56 50
10 12 16 11 26 11 20 38 33 41 37 33 51 50 50 60 59 61 60 52 47 59 62 45 59 68 81 74 65 60 62 57 58 51 53 52 51 62 61 64 57 64 63 64 69 57 59 60 62
21 19 31 12 25 12 28 37 42 29 33 51 59 57 55 51 63 70 62 57 61 58 62 52 54 59 71 81 70 73 68 61 55 47 45 40 42 49 57 63 67 65 78 82 83 72 80 78 69
25 29 26 23 17 15 12 32 18 16 39 49 54 56 50 37 19 47 65 59 63 71 59 55 37 55 57 59 75 81 77 75 71 56 58 54 51 58 64 75 61 64 73 82 88 80 77 67 53
30 33 27 34 18 15 9 13 8 12 19 13 33 35 29 19 19 22 35 51 42 55 42 38 37 53 57 65 74 74 81 84 90 50 60 60 63 75 70 60 60 65 65 69 72 74 63 59 51
32 22 31 39 30 11 16 3 15 7 14 14 18 21 23 31 26 23 16 20 34 39 34 34 32 38 45 51 50 54 66 77 80 68 69 63 73 81 64 66 56 49 45 46 61 51 43 55 53
35 30 21 33 8 12 34 14 11 10 15 9 6 44 49 70 67 55 42 31 28 19 20 21 28 36 42 39 40 45 52 62 64 74 78 71 69 73 69 62 54 56 45 40 39 59 60 52 59
37 24 8 8 9 16 13 11 14 12 11 11 12 49 59 73 73 64 56 53 36 36 31 28 27 28 36 34 36 40 41 55 54 59 55 60 69 74 61 57 61 58 50 47 53 34 28 71 64
10 32 9 11 7 11 2 10 11 15 5 8 42 68 69 71 71 65 54 46 45 37 34 29 25 26 31 24 31 40 47 51 56 50 46 42 39 47 54 60 60 60 66 62 56 60 51 68 63
24 13 34 4 1 6 3 12 9 29 26 24 53 47 66 63 61 60 49 37 30 23 22 14 12 21 26 21 27 37 42 48 57 51 56 57 54 50 46 49 54 58 29 34 37 64 54 62 74
22 9 9 3 9 5 8 5 3 19 22 5 25 28 43 66 66 59 50 42 37 30 21 17 18 9 9 15 21 24 26 29 34 37 35 44 46 46 49 46 29 40 61 58 54 67 68 66 63
11 15 9 13 11 9 4 2 5 11 17 15 15 30 50 54 65 65 62 52 40 41 42 33 25 30 30 21 17 8 7 8 7 9 12 13 14 17 19 26 25 27 22 17 32 51 55 68 58
10 9 9 10 8 7 10 6 3 18 23 16 22 41 61 58 58 61 60 55 52 50 46 45 43 38 33 30 24 23 25 27 26 27 27 26 29 29 23 3 6 6 5 20 25 36 37 38 39
Wind_Direction_500mb
268 266 280 316 41 63 263 257 322 302 324 243 144 170 166 140 166 192 148 163 168 170 169 169 170 169 165 160 154 149 148 146 146 150 150 150 149 148 147 145 142 140 138 138 136 135 132 129 125
254 227 233 18 103 56 264 224 259 244 308 112 104 111 52 69 131 138 148 166 173 174 174 171 174 173 170 165 160 157 154 150 149 152 151 150 151 151 151 150 147 146 144 143 142 143 141 138 133
235 192 178 139 177 199 235 186 298 330 325 313 120 103 118 133 133 143 156 164 176 179 179 175 177 177 174 170 167 163 161 156 152 154 154 154 155 156 156 155 153 151 151 150 151 151 149 145 144
170 161 226 149 227 253 232 276 4 327 317 317 180 81 127 143 159 162 155 162 177 182 181 179 178 180 178 175 174 171 168 164 159 158 160 161 163 163 163 164 161 159 160 158 157 157 157 153 151
176 147 172 241 250 255 262 277 295 278 273 287 301 144 127 170 184 165 164 169 181 185 183 183 181 182 183 181 180 177 174 172 167 163 166 168 169 171 172 171 169 168 168 169 166 164 163 162 156
190 162 106 239 242 282 275 277 294 281 276 274 257 122 123 176 174 166 172 174 182 195 185 185 185 184 188 187 186 185 182 179 175 172 171 175 177 179 180 178 177 177 176 178 176 171 167 168 165
155 100 220 238 249 273 264 285 272 279 271 276 254 103 143 166 171 167 175 177 182 200 190 187 187 187 190 193 192 191 190 187 186 184 181 182 186 188 189 187 188 188 188 188 188 183 177 176 177
205 120 242 234 218 264 271 360 344 332 298 312 205 154 167 171 171 176 179 182 183 188 196 192 192 191 190 192 196 199 197 196 196 195 192 191 194 197 199 199 200 201 203 202 201 198 195 192 192
197 117 219 237 191 246 273 10 340 337 344 11 50 153 162 165 172 175 184 183 184 183 194 202 200 199 197 195 195 198 203 203 202 203 202 202 204 205 208 208 209 210 215 217 217 216 212 211 210
182 176 218 219 217 269 283 321 310 323 342 355 34 125 153 157 173 181 186 191 195 192 190 200 207 208 204 203 203 202 200 202 206 206 210 210 211 215 217 217 216 217 223 226 227 226 227 226 224
197 219 221 268 250 264 275 299 293 263 301 241 330 348 95 166 175 182 191 201 208 219 207 201 208 214 212 210 209 208 206 204 204 209 214 217 222 224 228 227 224 221 222 230 235 237 239 244 243
250 233 222 251 265 270 271 289 254 229 253 282 297 305 293 276 231 179 172 213 203 216 226 217 212 212 214 214 212 212 212 210 208 210 214 222 227 231 235 236 229 228 230 234 243 249 250 248 248
231 235 258 257 257 261 269 265 260 226 249 272 284 287 285 276 261 249 245 310 223 221 218 212 207 207 211 214 212 212 214 216 216 218 221 226 231 234 235 236 232 230 233 243 254 259 261 258 253
238 222 244 254 259 260 256 263 256 260 248 252 271 277 275 276 273 264 261 254 296 226 223 220 215 205 210 218 216 216 215 219 224 228 227 230 234 237 242 236 227 225 227 232 247 261 257 260 251
244 262 266 243 245 240 255 263 233 251 264 257 253 261 264 269 273 274 268 262 270 254 222 220 218 200 204 213 215 218 210 203 217 231 235 239 238 239 241 231 227 231 234 232 242 239 242 250 249
207 211 250 263 242 262 210 256 248 256 260 263 265 265 266 263 261 263 266 262 263 263 221 221 216 210 212 212 203 209 212 213 215 208 205 216 216 222 226 221 226 225 245 248 242 245 240 236 247
220 248 234 257 209 221 200 255 237 251 245 245 254 262 263 263 262 262 258 257 258 259 224 223 210 211 215 208 199 195 203 210 211 199 210 213 218 224 222 215 221 226 232 237 238 239 234 221 223
235 229 232 215 250 202 247 254 258 254 237 238 247 257 256 243 246 251 250 247 249 253 244 209 212 209 204 203 197 198 204 209 211 213 216 220 223 225 225 223 225 228 231 237 238 235 225 229 233
262 232 254 230 236 216 249 262 259 253 241 236 244 247 242 237 238 241 241 241 245 246 245 217 198 210 208 203 200 199 203 211 218 220 222 227 231 233 232 228 231 233 233 231 232 236 233 238 246
229 256 255 295 260 202 252 257 253 234 230 234 235 245 252 257 252 240 235 235 241 242 239 228 205 207 211 212 207 206 212 206 212 212 210 206 218 227 236 242 242 243 245 235 239 238 238 240 246
227 236 249 247 293 265 274 287 233 224 214 226 236 249 258 238 229 237 232 232 242 235 237 229 218 206 206 211 207 211 213 218 220 223 230 239 248 259 260 252 257 261 258 249 239 249 244 253 241
233 232 246 259 261 259 134 270 248 200 201 207 232 238 186 162 192 211 227 228 238 229 231 217 216 195 200 208 208 224 235 227 242 237 242 261 239 244 252 257 265 262 263 263 250 260 252 244 226
251 240 241 249 250 260 263 202 268 240 234 241 228 197 153 125 123 104 159 197 195 204 201 203 188 196 211 217 231 240 245 241 232 229 237 247 246 242 244 263 257 257 266 262 258 234 246 237 237
245 247 302 294 227 238 246 164 269 194 200 247 159 157 130 116 112 109 109 122 134 170 179 169 198 209 225 220 234 248 244 233 238 238 238 254 252 242 262 247 258 265 261 254 244 243 248 255 249
223 222 204 274 194 220 200 190 214 246 209 243 226 158 133 121 113 116 115 101 132 174 181 196 199 210 222 219 231 241 250 240 250 252 252 259 257 256 253 260 253 261 251 245 263 266 246 273 253
213 195 181 209 225 221 276 249 258 268 51 139 141 133 124 115 110 106 109 107 96 102 183 202 214 215 211 229 241 244 243 246 248 258 262 261 265 274 264 259 259 260 248 242 241 260 241 255 246
241 195 203 173 346 83 283 317 37 356 111 133 128 128 122 118 112 107 99 92 93 96 99 118 173 215 224 228 240 244 249 262 254 267 271 266 264 264 269 264 263 267 270 250 251 231 237 248 236
225 209 152 53 155 98 305 89 27 348 350 324 112 96 116 119 115 113 112 106 96 88 79 80 81 97 105 199 218 227 246 249 252 258 263 256 254 251 254 258 260 270 276 261 254 223 227 241 238
243 223 198 131 138 136 185 228 155 50 18 23 4 86 113 117 118 116 113 110 104 105 104 101 91 89 89 104 106 97 41 310 328 326 287 294 273 265 261 256 247 256 258 241 232 236 250 241 247
228 270 157 153 189 159 114 253 118 69 46 18 48 73 90 105 113 115 117 118 113 108 106 107 107 102 96 94 91 78 84 85 85 84 82 80 83 78 46 273 331 313 268 256 267 258 254 247 249
Wind_Speed_850mb
18 14 13 6 6 8 10 15 5 15 16 19 45 23 17 12 9 7 30 52 47 61 67 67 62 59 54 49 44 42 38 34 36 42 43 43 47 50 48 43 38 35 34 32 31 31 31 31 32
10 9 7 1 8 1 12 5 17 20 25 10 43 34 11 3 19 34 56 48 39 51 63 69 65 61 56 51 46 42 39 35 36 42 44 46 50 50 46 40 35 32 31 31 30 30 30 32 34
6 10 7 7 7 13 13 10 5 29 60 38 16 34 16 21 33 43 28 47 51 52 59 70 68 63 58 53 49 44 40 36 35 41 43 47 48 46 42 36 32 29 28 28 28 28 29 32 35
8 9 5 6 23 15 20 12 17 33 62 46 6 14 15 26 38 30 37 41 46 48 57 68 69 65 61 56 53 48 44 39 37 40 43 46 46 43 39 34 30 26 24 25 25 25 26 29 33
11 5 1 8 18 13 19 29 34 23 23 45 38 15 19 33 23 33 40 40 40 49 60 66 68 65 61 58 54 51 48 44 39 39 42 44 43 41 38 33 28 24 23 23 23 23 23 24 28
7 3 3 18 10 13 13 36 26 28 48 46 9 18 13 36 37 37 37 38 31 39 62 66 67 65 60 57 54 50 47 44 39 35 37 40 41 40 37 31 26 22 21 21 20 20 21 22 24
9 7 11 9 8 13 15 22 11 27 31 31 29 10 34 53 31 35 39 37 26 39 60 66 66 63 58 54 52 49 47 44 42 38 36 37 39 39 35 31 26 22 19 19 19 18 19 20 21
13 8 7 10 9 16 16 13 31 29 31 28 24 12 27 58 45 42 43 39 28 31 54 60 63 64 61 56 51 49 49 47 44 40 34 32 34 36 36 32 27 22 19 18 19 20 20 20 20
12 5 10 12 11 13 22 13 27 29 41 25 14 50 65 63 62 57 50 43 39 41 43 53 59 61 60 56 53 51 48 49 48 45 40 36 33 33 36 34 30 26 22 20 20 21 21 22 21
14 11 19 15 10 14 28 8 31 13 27 19 33 34 56 56 66 65 59 53 48 49 47 40 50 57 58 56 54 55 55 57 56 51 46 37 33 30 32 35 34 30 26 24 24 24 25 25 22
13 15 17 14 44 56 42 13 26 3 8 7 17 18 4 40 56 62 63 55 46 42 50 50 43 49 60 61 59 57 59 60 56 51 46 41 37 32 30 33 38 36 34 31 30 29 28 24 23
10 16 35 36 59 39 24 32 10 12 23 27 29 22 16 12 14 12 19 52 63 53 56 58 53 46 54 66 67 61 62 60 57 53 48 45 42 37 34 35 39 40 37 34 32 32 29 27 26
18 10 31 45 61 70 63 41 29 25 27 30 33 40 38 28 25 23 20 14 37 69 69 69 65 60 59 68 66 62 57 54 53 53 51 49 47 44 39 38 40 40 36 33 34 33 33 32 30
12 43 53 58 58 62 36 42 25 30 27 32 38 46 52 56 45 37 33 26 19 36 66 73 66 58 45 64 62 58 53 49 49 51 53 51 48 44 43 40 37 37 36 27 18 21 26 34 31
46 20 24 29 31 22 44 33 22 35 32 33 37 49 54 61 64 60 51 43 40 18 37 62 70 63 49 54 52 54 45 37 31 39 46 46 47 46 45 45 42 36 31 31 24 25 24 26 28
10 12 34 18 16 23 27 52 22 32 39 46 55 57 61 64 64 60 53 45 59 47 33 37 53 68 53 59 50 47 43 42 34 30 33 26 33 41 47 47 42 35 36 36 37 27 28 33 28
10 21 13 7 20 16 25 46 17 50 47 50 62 63 69 76 71 69 55 45 49 51 40 40 47 59 67 61 48 41 48 47 42 38 40 37 36 40 44 52 44 49 49 55 45 43 33 41 37
9 3 11 14 10 16 21 37 13 38 44 52 65 67 73 64 73 68 59 54 42 54 44 40 54 63 77 64 61 45 54 51 48 45 47 49 49 49 50 60 62 51 53 52 55 56 51 56 50
10 12 16 11 26 11 20 38 33 41 37 33 51 50 50 60 59 61 60 52 47 59 62 45 59 68 81 74 65 60 62 57 58 51 53 52 51 62 61 64 57 64 63 64 69 57 59 60 62
21 19 31 12 25 12 28 37 42 29 33 51 59 57 55 51 63 70 62 57 61 58 62 52 54 59 71 81 70 73 68 61 55 47 45 40 42 49 57 63 67 65 78 82 83 72 80 78 69
25 29 26 23 17 15 12 32 18 16 39 49 54 56 50 37 19 47 65 59 63 71 59 55 37 55 57 59 75 81 77 75 71 56 58 54 51 58 64 75 61 64 73 82 88 80 77 67 53
30 33 27 34 18 15 9 13 8 12 19 13 33 35 29 19 19 22 35 51 42 55 42 38 37 53 57 65 74 74 81 84 90 50 60 60 63 75 70 60 60 65 65 69 72 74 63 59 51
32 22 31 39 30 11 16 3 15 7 14 14 18 21 23 31 26 23 16 20 34 39 34 34 32 38 45 51 50 54 66 77 80 68 69 63 73 81 64 66 56 49 45 46 61 51 43 55 53
35 30 21 33 8 12 34 14 11 10 15 9 6 44 49 70 67 55 42 31 28 19 20 21 28 36 42 39 40 45 52 62 64 74 78 71 69 73 69 62 54 56 45 40 39 59 60 52 59
37 24 8 8 9 16 13 11 14 12 11 11 12 49 59 73 73 64 56 53 36 36 31 28 27 28 36 34 36 40 41 55 54 59 55 60 69 74 61 57 61 58 50 47 53 34 28 71 64
10 32 9 11 7 11 2 10 11 15 5 8 42 68 69 71 71 65 54 46 45 37 34 29 25 26 31 24 31 40 47 51 56 50 46 42 39 47 54 60 60 60 66 62 56 60 51 68 63
24 13 34 4 1 6 3 12 9 29 26 24 53 47 66 63 61 60 49 37 30 23 22 14 12 21 26 21 27 37 42 48 57 51 56 57 54 50 46 49 54 58 29 34 37 64 54 62 74
22 9 9 3 9 5 8 5 3 19 22 5 25 28 43 66 66 59 50 42 37 30 21 17 18 9 9 15 21 24 26 29 34 37 35 44 46 46 49 46 29 40 61 58 54 67 68 66 63
11 15 9 13 11 9 4 2 5 11 17 15 15 30 50 54 65 65 62 52 40 41 42 33 25 30 30 21 17 8 7 8 7 9 12 13 14 17 19 26 25 27 22 17 32 51 55 68 58
10 9 9 10 8 7 10 6 3 18 23 16 22 41 61 58 58 61 60 55 52 50 46 45 43 38 33 30 24 23 25 27 26 27 27 26 29 29 23 3 6 6 5 20 25 36 37 38 39
Wind_Direction_850mb
268 266 280 316 41 63 263 257 322 302 324 243 144 170 166 140 166 192 148 163 168 170 169 169 170 169 165 160 154 149 148 146 146 150 150 150 149 148 147 145 142 140 138 138 136 135 132 129 125
254 227 233 18 103 56 264 224 259 244 308 112 104 111 52 69 131 138 148 166 173 174 174 171 174 173 170 165 160 157 154 150 149 152 151 150 151 151 151 150 147 146 144 143 142 143 141 138 133
235 192 178 139 177 199 235 186 298 330 325 313 120 103 118 133 133 143 156 164 176 179 179 175 177 177 174 170 167 163 161 156 152 154 154 154 155 156 156 155 153 151 151 150 151 151 149 145 144
170 161 226 149 227 253 232 276 4 327 317 317 180 81 127 143 159 162 155 162 177 182 181 179 178 180 178 175 174 171 168 164 159 158 160 161 163 163 163 164 161 159 160 158 157 157 157 153 151
176 147 172 241 250 255 262 277 295 278 273 287 301 144 127 170 184 165 164 169 181 185 183 183 181 182 183 181 180 177 174 172 167 163 166 168 169 171 172 171 169 168 168 169 166 164 163 162 156
190 162 106 239 242 282 275 277 294 281 276 274 257 122 123 176 174 166 172 174 182 195 185 185 185 184 188 187 186 185 182 179 175 172 171 175 177 179 180 178 177 177 176 178 176 171 167 168 165
155 100 220 238 249 273 264 285 272 279 271 276 254 103 143 166 171 167 175 177 182 200 190 187 187 187 190 193 192 191 190 187 186 184 181 182 186 188 189 187 188 188 188 188 188 183 177 176 177
205 120 242 234 218 264 271 360 344 332 298 312 205 154 167 171 171 176 179 182 183 188 196 192 192 191 190 192 196 199 197 196 196 195 192 191 194 197 199 199 200 201 203 202 201 198 195 192 192
197 117 219 237 191 246 273 10 340 337 344 11 50 153 162 165 172 175 184 183 184 183 194 202 200 199 197 195 195 198 203 203 202 203 202 202 204 205 208 208 209 210 215 217 217 216 212 211 210
182 176 218 219 217 269 283 321 310 323 342 355 34 125 153 157 173 181 186 191 195 192 190 200 207 208 204 203 203 202 200 202 206 206 210 210 211 215 217 217 216 217 223 226 227 226 227 226 224
197 219 221 268 250 264 275 299 293 263 301 241 330 348 95 166 175 182 191 201 208 219 207 201 208 214 212 210 209 208 206 204 204 209 214 217 222 224 228 227 224 221 222 230 235 237 239 244 243
250 233 222 251 265 270 271 289 254 229 253 282 297 305 293 276 231 179 172 213 203 216 226 217 212 212 214 214 212 212 212 210 208 210 214 222 227 231 235 236 229 228 230 234 243 249 250 248 248
231 235 258 257 257 261 269 265 260 226 249 272 284 287 285 276 261 249 245 310 223 221 218 212 207 207 211 214 212 212 214 216 216 218 221 226 231 234 235 236 232 230 233 243 254 259 261 258 253
238 222 244 254 259 260 256 263 256 260 248 252 271 277 275 276 273 264 261 254 296 226 223 220 215 205 210 218 216 216 215 219 224 228 227 230 234 237 242 236 227 225 227 232 247 261 257 260 251
244 262 266 243 245 240 255 263 233 251 264 257 253 261 264 269 273 274 268 262 270 254 222 220 218 200 204 213 215 218 210 203 217 231 235 239 238 239 241 231 227 231 234 232 242 239 242 250 249
207 211 250 263 242 262 210 256 248 256 260 263 265 265 266 263 261 263 266 262 263 263 221 221 216 210 212 212 203 209 212 213 215 208 205 216 216 222 226 221 226 225 245 248 242 245 240 236 247
220 248 234 257 209 221 200 255 237 251 245 245 254 262 263 263 262 262 258 257 258 259 224 223 210 211 215 208 199 195 203 210 211 199 210 213 218 224 222 215 221 226 232 237 238 239 234 221 223
235 229 232 215 250 202 247 254 258 254 237 238 247 257 256 243 246 251 250 247 249 253 244 209 212 209 204 203 197 198 204 209 211 213 216 220 223 225 225 223 225 228 231 237 238 235 225 229 233
262 232 254 230 236 216 249 262 259 253 241 236 244 247 242 237 238 241 241 241 245 246 245 217 198 210 208 203 200 199 203 211 218 220 222 227 231 233 232 228 231 233 233 231 232 236 233 238 246
229 256 255 295 260 202 252 257 253 234 230 234 235 245 252 257 252 240 235 235 241 242 239 228 205 207 211 212 207 206 212 206 212 212 210 206 218 227 236 242 242 243 245 235 239 238 238 240 246
227 236 249 247 293 265 274 287 233 224 214 226 236 249 258 238 229 237 232 232 242 235 237 229 218 206 206 211 207 211 213 218 220 223 230 239 248 259 260 252 257 261 258 249 239 249 244 253 241
233 232 246 259 261 259 134 270 248 200 201 207 232 238 186 162 192 211 227 228 238 229 231 217 216 195 200 208 208 224 235 227 242 237 242 261 239 244 252 257 265 262 263 263 250 260 252 244 226
251 240 241 249 250 260 263 202 268 240 234 241 228 197 153 125 123 104 159 197 195 204 201 203 188 196 211 217 231 240 245 241 232 229 237 247 246 242 244 263 257 257 266 262 258 234 246 237 237
245 247 302 294 227 238 246 164 269 194 200 247 159 157 130 116 112 109 109 122 134 170 179 169 198 209 225 220 234 248 244 233 238 238 238 254 252 242 262 247 258 265 261 254 244 243 248 255 249
223 222 204 274 194 220 200 190 214 246 209 243 226 158 133 121 113 116 115 101 132 174 181 196 199 210 222 219 231 241 250 240 250 252 252 259 257 256 253 260 253 261 251 245 263 266 246 273 253
213 195 181 209 225 221 276 249 258 268 51 139 141 133 124 115 110 106 109 107 96 102 183 202 214 215 211 229 241 244 243 246 248 258 262 261 265 274 264 259 259 260 248 242 241 260 241 255 246
241 195 203 173 346 83 283 317 37 356 111 133 128 128 122 118 112 107 99 92 93 96 99 118 173 215 224 228 240 244 249 262 254 267 271 266 264 264 269 264 263 267 270 250 251 231 237 248 236
225 209 152 53 155 98 305 89 27 348 350 324 112 96 116 119 115 113 112 106 96 88 79 80 81 97 105 199 218 227 246 249 252 258 263 256 254 251 254 258 260 270 276 261 254 223 227 241 238
243 223 198 131 138 136 185 228 155 50 18 23 4 86 113 117 118 116 113 110 104 105 104 101 91 89 89 104 106 97 41 310 328 326 287 294 273 265 261 256 247 256 258 241 232 236 250 241 247
228 270 157 153 189 159 114 253 118 69 46 18 48 73 90 105 113 115 117 118 113 108 106 107 107 102 96 94 91 78 84 85 85 84 82 80 83 78 46 273 331 313 268 256 267 258 254 247 249